[[{"header":{"parameterUnit":"m.s-1","parameterCategory":1,"la1":30.2991,"la2":30.254,"lo1":-89.0895,"lo2":-89.0444,"dy":0.0017,"dx":0.0017,"nx":28,"ny":28,"refTime":"2025-04-10T09:00:00:Z","depth":0,"parameterNumber":2,"parameterNumberName":"U-component_of_WINDS"},"data":[0,0,0,0,0,0,0,0,0,0,0,0,0,0,0,0,0,0,0,0,0,0,0,0,0,0,0,0,0,0,0,0,0,0,0,0,0,0,0,0,0,0,0,0,0,0,0,0,0,0,0,0,0,0,0,0,0,0,2.3382,2.3383,0,2.3472,2.3473,2.3474,2.3425,2.3422,2.342,2.3417,2.3515,2.352,2.3525,0,0,0,0,0,0,0,0,0,0,0,0,0,2.3172,2.3177,2.3382,2.3383,2.3384,2.3472,2.3473,2.3474,2.3425,2.3422,2.3419,2.3416,2.3513,2.3519,2.3525,0,0,0,0,0,0,0,0,0,0,0,0,0,2.3263,2.3178,2.3382,2.337,2.337,2.3472,2.3473,2.3475,2.3426,2.3422,2.3418,2.3415,2.3511,2.3519,2.3526,2.3646,0,0,2.3549,2.3552,0,0,0,0,0,0,0,0,2.3258,2.3271,2.3371,2.3371,2.3371,2.3433,2.3435,2.3533,2.3427,2.3405,2.3417,2.3413,2.3491,2.35,2.3525,2.3651,2.3655,2.3549,2.3554,2.3557,2.3559,0,0,0,0,0,0,0,2.3252,2.3267,2.3418,2.3372,2.3372,2.3362,2.3371,2.3453,2.3468,2.3406,2.3403,2.3414,2.3491,2.3518,2.3527,2.3657,2.3549,2.3556,2.356,2.3563,2.3886,2.389,0,0,0,0,0,0,2.3246,2.3262,2.3415,2.342,2.3304,2.3369,2.3379,2.3417,2.3467,2.3471,2.3417,2.3411,2.3507,2.3519,2.353,2.3674,2.3557,2.3564,2.3568,2.3882,2.3887,2.3891,0,0,0,0,0,0,2.3241,2.326,2.3411,2.334,2.3359,2.3376,2.342,2.3421,2.3448,2.3475,2.3478,2.3442,2.3505,2.352,2.3618,2.3676,2.3567,2.3574,2.3877,2.3883,2.3889,2.3962,0,0,0,0,0,0,2.3236,2.3258,2.3303,2.3342,2.3363,2.3495,2.3424,2.3425,2.346,2.3454,2.3499,2.3503,2.3503,2.3607,2.3625,2.3685,2.358,2.3872,2.388,2.3887,2.3954,2.397,2.3983,0,0,0,0,0,2.3228,2.3321,2.3305,2.3324,2.3418,2.3499,2.3511,2.3507,2.3465,2.3511,2.3528,2.3502,2.3668,2.3617,2.3637,2.37,2.3868,2.3877,2.3887,2.3948,2.3967,2.3983,0,0,0,0,0,0,2.329,2.3326,2.3309,2.3416,2.3455,2.349,2.3547,2.3528,2.358,2.3571,2.3567,2.3578,2.3679,2.37,2.3643,2.382,2.3762,2.3775,2.3801,2.382,2.3834,2.3826,2.3586,0,0,0,0,0,2.3316,2.3377,2.3405,2.3498,2.3518,2.3529,2.3564,2.3558,2.3598,2.3615,2.3639,2.3681,2.3742,2.3782,2.3841,2.3958,2.3967,2.4012,2.4026,2.4038,2.4049,2.4113,2.4132,2.3922,2.3922,2.3922,0,0,2.3371,2.3398,2.3436,2.3511,2.354,2.3604,2.3543,2.3614,2.3662,2.3626,2.3718,2.3738,2.3785,2.3892,2.3941,2.3913,2.411,2.405,2.4059,2.4064,2.4124,2.4144,2.4162,2.3928,2.3927,2.3926,0,0,2.3502,2.3529,2.3608,2.3638,2.3682,2.369,2.3709,2.3748,2.3759,2.3852,2.3826,2.3885,2.3991,2.4024,2.4055,2.4202,2.4179,2.4221,2.4296,2.4358,2.4374,2.4389,2.444,2.4458,2.4233,2.4233,2.4233,0,2.3564,2.3658,2.3652,2.3724,2.3758,2.3728,2.3809,2.384,2.3901,2.3926,2.3894,2.4025,2.4055,2.417,2.4205,2.4232,2.4254,2.4215,2.4372,2.4387,2.44,2.4449,2.4468,2.4238,2.4237,2.4237,2.4236,0,2.3732,2.3798,2.3857,2.3915,2.3957,2.4033,2.404,2.4083,2.4075,2.4086,2.4182,2.4216,2.428,2.4307,2.43,2.4422,2.4403,2.4372,2.4313,2.4425,2.447,2.4489,2.4244,2.4243,2.4241,2.424,0,0,2.3902,2.3957,2.3979,2.4005,2.4052,2.4104,2.418,2.4241,2.4278,2.4323,2.4386,2.4477,2.4449,2.4484,2.4481,2.4536,2.4648,2.4498,2.4499,2.4523,2.4784,2.4805,2.4826,2.4635,2.4638,2.4641,2.4779,0,2.4035,2.4165,2.4163,2.4285,2.4346,2.432,2.4386,2.4424,2.4437,2.4492,2.4508,2.4572,2.453,2.4551,2.4604,2.4623,2.47,2.4614,2.4694,2.4697,2.468,2.485,2.4873,2.5001,2.4797,2.48,2.4802,0,2.4206,2.4255,2.4382,2.4421,2.4446,2.4506,2.4562,2.4615,2.4658,2.4664,2.4704,2.4693,2.4772,2.4713,2.4822,2.4763,2.4797,2.4812,2.4817,2.4822,2.4754,2.4858,2.5042,2.506,2.483,2.4828,2.4826,0,2.4315,2.4413,2.4501,2.4525,2.4573,2.4615,2.4638,2.4677,2.4714,2.4764,2.4788,2.4848,2.4881,2.4928,2.4934,2.489,2.5044,2.4985,2.5051,2.5051,2.5082,2.5079,2.5271,2.5108,2.5108,2.5107,2.5107,0,2.4462,2.4541,2.4551,2.4605,2.4693,2.4692,2.4779,2.4798,2.4833,2.4892,2.4875,2.493,2.4936,2.4994,2.5,2.5089,2.5104,2.5112,2.5112,2.5112,2.511,2.5132,2.5122,2.5112,2.5111,2.511,2.5109,0,2.4597,2.4607,2.4701,2.474,2.4751,2.4814,2.4847,2.49,2.4913,2.4987,2.5005,2.5025,2.5093,2.5104,2.5184,2.5188,2.5294,2.5286,2.5278,2.5277,2.5341,2.5334,2.5551,2.5579,2.54,2.5401,2.5403,0,2.4688,2.4748,2.4792,2.483,2.4854,2.4914,2.4952,2.4954,2.4994,2.5048,2.5095,2.516,2.5212,2.5322,2.5345,2.5406,2.5398,2.547,2.5407,2.5405,2.5397,2.5392,2.5398,2.5482,2.5483,2.5485,2.5486,0,2.4849,2.4852,2.4905,2.4962,2.5007,2.5052,2.5094,2.5127,2.5135,2.5181,2.5249,2.529,2.5371,2.5436,2.5497,2.5522,2.5506,2.5507,2.5524,2.5523,2.5515,2.5519,2.5309,2.5501,2.5499,2.5498,2.5497,2.5497,2.4964,2.5015,2.5054,2.5115,2.5148,2.5188,2.5239,2.5258,2.5314,2.5379,2.5378,2.5453,2.5496,2.5576,2.5605,2.5664,2.5641,2.5668,2.5674,2.568,2.5685,2.5509,2.5676,2.5676,2.5675,2.5675,2.5675,0,2.5121,2.5146,2.5202,2.5261,2.531,2.5291,2.5337,2.5379,2.5444,2.5485,2.5537,2.5615,2.5679,2.5708,2.5771,2.5813,2.5807,2.5829,2.5824,2.583,2.5703,2.568,2.5833,2.5833,2.5832,2.5832,2.5832,2.5832,2.5209,2.5294,2.5302,2.5404,2.5429,2.55,2.5528,2.5566,2.5598,2.5686,2.5739,2.5757,2.5793,2.5859,2.5917,2.5924,2.5947,2.5972,2.5975,2.5856,2.5839,2.5824,2.5802,2.5978,2.5978,2.6097,2.6098,2.6099]},{"header":{"parameterUnit":"m.s-1","parameterCategory":1,"la1":30.2991,"la2":30.254,"lo1":-89.0895,"lo2":-89.0444,"dy":0.0017,"dx":0.0017,"nx":28,"ny":28,"refTime":"2025-04-10T09:00:00:Z","depth":0,"parameterNumber":3,"parameterNumberName":"V-component_of_WINDS"},"data":[0,0,0,0,0,0,0,0,0,0,0,0,0,0,0,0,0,0,0,0,0,0,0,0,0,0,0,0,0,0,0,0,0,0,0,0,0,0,0,0,0,0,0,0,0,0,0,0,0,0,0,0,0,0,0,0,0,0,3.3555,3.3557,0,3.3748,3.375,3.3752,3.3777,3.3775,3.3773,3.3772,3.3963,3.3969,3.3976,0,0,0,0,0,0,0,0,0,0,0,0,0,3.3199,3.3205,3.3554,3.3557,3.3559,3.3747,3.375,3.3753,3.3777,3.3775,3.3773,3.3771,3.396,3.3968,3.3977,0,0,0,0,0,0,0,0,0,0,0,0,0,3.3368,3.3207,3.3554,3.3594,3.36,3.3747,3.375,3.3753,3.3778,3.3775,3.3772,3.377,3.3958,3.3968,3.3978,3.4096,0,0,3.4009,3.4013,0,0,0,0,0,0,0,0,3.3359,3.3381,3.3586,3.3592,3.3598,3.3736,3.3695,3.3868,3.3778,3.371,3.3771,3.3768,3.3889,3.3904,3.3947,3.4105,3.4113,3.401,3.4016,3.402,3.4023,0,0,0,0,0,0,0,3.3347,3.3373,3.3631,3.3589,3.3596,3.36,3.3621,3.3728,3.3812,3.3716,3.3718,3.3741,3.3892,3.3937,3.3951,3.4116,3.4009,3.4018,3.4025,3.4029,3.4377,3.438,0,0,0,0,0,0,3.3329,3.3363,3.3624,3.3636,3.347,3.3609,3.3632,3.3694,3.3811,3.3827,3.3743,3.3741,3.3921,3.3939,3.3958,3.4103,3.402,3.403,3.4036,3.4374,3.4378,3.4381,0,0,0,0,0,0,3.3321,3.3352,3.3617,3.3501,3.3535,3.3618,3.3687,3.3699,3.3745,3.3832,3.3846,3.3774,3.3919,3.3944,3.4061,3.411,3.4034,3.4044,3.437,3.4375,3.438,3.4393,0,0,0,0,0,0,3.3311,3.3349,3.3397,3.3502,3.3541,3.3719,3.369,3.3705,3.3763,3.3763,3.3865,3.3879,3.3919,3.4046,3.4071,3.4122,3.4052,3.4366,3.4373,3.4378,3.4389,3.4398,3.4406,0,0,0,0,0,3.3298,3.3392,3.3399,3.3431,3.3603,3.3722,3.3744,3.379,3.3767,3.3814,3.387,3.3876,3.41,3.4058,3.4087,3.4141,3.4364,3.4371,3.4378,3.4385,3.4396,3.4405,0,0,0,0,0,0,3.3289,3.3406,3.3416,3.3547,3.3624,3.3726,3.3787,3.38,3.3884,3.388,3.3931,3.3954,3.4069,3.4117,3.4067,3.426,3.4229,3.4242,3.4225,3.4236,3.4244,3.423,3.406,0,0,0,0,0,3.3302,3.3392,3.3489,3.3595,3.3634,3.3704,3.3757,3.3786,3.3867,3.39,3.3964,3.4041,3.4128,3.4185,3.427,3.4396,3.4417,3.4447,3.4455,3.4462,3.4472,3.454,3.4554,3.4404,3.4404,3.4404,0,0,3.333,3.3406,3.3459,3.3595,3.3658,3.3747,3.3731,3.3826,3.3892,3.3913,3.4029,3.4078,3.4167,3.4288,3.4345,3.4332,3.4518,3.4471,3.4475,3.4483,3.4549,3.4563,3.4575,3.4409,3.4408,3.4408,0,0,3.3427,3.3494,3.3589,3.3653,3.375,3.3796,3.3819,3.3918,3.3953,3.407,3.4087,3.4164,3.4315,3.4377,3.4428,3.4546,3.4554,3.4572,3.4616,3.4681,3.4692,3.4703,3.4744,3.4758,3.4582,3.4582,3.4583,0,3.3449,3.3587,3.3636,3.3731,3.3789,3.3814,3.3909,3.3968,3.4087,3.4125,3.4109,3.4297,3.4359,3.4494,3.4523,3.4564,3.4589,3.4561,3.4687,3.4698,3.4709,3.4748,3.4763,3.4584,3.4584,3.4584,3.4583,0,3.3608,3.3703,3.3768,3.3884,3.3949,3.4043,3.4104,3.4164,3.4186,3.4232,3.4349,3.4424,3.4524,3.4558,3.458,3.4696,3.4685,3.4677,3.4647,3.4724,3.4762,3.4777,3.4586,3.4586,3.4585,3.4585,0,0,3.3705,3.3847,3.387,3.3922,3.403,3.4103,3.4197,3.4297,3.4346,3.4426,3.4505,3.4631,3.4624,3.4682,3.4711,3.4768,3.4855,3.4754,3.4757,3.4769,3.4984,3.4989,3.5006,3.4861,3.4864,3.4866,3.4977,0,3.3814,3.3985,3.4031,3.4175,3.4262,3.4286,3.4367,3.444,3.4486,3.4564,3.4612,3.4701,3.4686,3.4721,3.4779,3.4832,3.4899,3.4825,3.4932,3.4935,3.4908,3.5026,3.5031,3.5132,3.4992,3.4994,3.4996,0,3.3964,3.4049,3.4202,3.4298,3.4336,3.4408,3.4503,3.4578,3.466,3.4689,3.4753,3.4776,3.4872,3.4836,3.4967,3.4916,3.4962,3.4994,3.4999,3.501,3.497,3.5039,3.5165,3.518,3.502,3.5018,3.5016,0,3.4017,3.417,3.4281,3.4325,3.444,3.449,3.4539,3.462,3.4676,3.4757,3.4794,3.4885,3.4934,3.5002,3.5047,3.5018,3.5174,3.5143,3.5198,3.5197,3.5229,3.5227,3.5364,3.526,3.526,3.526,3.5259,0,3.4133,3.4225,3.4307,3.4375,3.4478,3.4529,3.4628,3.4678,3.4749,3.4825,3.485,3.492,3.4977,3.5054,3.509,3.5192,3.5214,3.5237,3.5246,3.5235,3.5232,3.5266,3.5259,3.5264,3.5263,3.5262,3.5261,0,3.4211,3.4269,3.4392,3.449,3.4517,3.4588,3.4671,3.4737,3.4782,3.4878,3.4903,3.4974,3.5066,3.5118,3.5233,3.5257,3.537,3.5375,3.5343,3.5346,3.5398,3.5392,3.5561,3.5585,3.5466,3.5467,3.5468,0,3.428,3.4352,3.4459,3.4513,3.4563,3.465,3.4708,3.4759,3.4818,3.4917,3.4969,3.5063,3.5141,3.5286,3.5346,3.5433,3.544,3.5493,3.5453,3.5439,3.5439,3.5434,3.544,3.55,3.5501,3.5502,3.5502,0,3.4397,3.4423,3.4507,3.4601,3.467,3.4746,3.4822,3.4863,3.4927,3.4991,3.5087,3.5147,3.5265,3.5356,3.5449,3.5496,3.5509,3.5514,3.5532,3.5521,3.5499,3.551,3.5361,3.551,3.5509,3.5509,3.5508,3.5508,3.4473,3.4537,3.4622,3.4714,3.4776,3.4846,3.4912,3.4966,3.5048,3.5149,3.5174,3.5273,3.5351,3.5477,3.5526,3.5603,3.5593,3.5618,3.5625,3.563,3.5631,3.5487,3.562,3.562,3.5619,3.5619,3.5619,0,3.459,3.4645,3.473,3.4835,3.4907,3.4916,3.4999,3.5057,3.5146,3.5219,3.5295,3.5403,3.5492,3.5558,3.5648,3.5696,3.5704,3.5718,3.5715,3.5725,3.5635,3.5611,3.571,3.571,3.571,3.571,3.571,3.571,3.4659,3.4768,3.4803,3.4942,3.4996,3.5096,3.5143,3.5206,3.5264,3.5385,3.5459,3.5503,3.5573,3.5668,3.5748,3.5765,3.5796,3.5809,3.5827,3.5741,3.5731,3.5722,3.57,3.5816,3.5816,3.591,3.5911,3.5912]}]]